Regional Weather Roundup
Issued by NWS Pendleton, OR

Home | Current Version | Previous Version | Text Only | Print | Product List | Glossary On
Versions: 1 2 3 4 5 6 7 8 9 10 11 12 13 14 15 16 17 18 19 20 21 22 23 24 25 26 27 28 29 30 31 32 33 34 35 36 37 38 39 40 41 42 43 44 45 46 47 48 49 50
000
ASUS46 KPDT 280204
RWRPDT
PENDLETON REGIONAL WEATHER ROUNDUP
NATIONAL WEATHER SERVICE PENDLETON OREGON
700 PM PDT SAT MAY 27 2017

NOTE: FAIR INDICATES FEW OR NO CLOUDS BELOW 12,000 FEET WITH NO
SIGNIFICANT WEATHER AND/OR OBSTRUCTIONS TO VISIBILITY.

# INDICATES UNOFFICIAL STATION AND DATA

WAZ520-280310-
EAST SLOPES OF WASHINGTON CASCADES

CITY            SKY/WX      TMP DP  RH  WIND    PRES   REMARKS
#BULLFROG       N/A         81  41  24  E5      N/A
#CLE ELUM HS    N/A         79  41  26  E6      30.01S
#CLE ELUM LAKE  N/A         79  45  30  CALM    30.06S
#EASTON DOT     N/A         78  45  31  N1      N/A
#ELK HTS DOT    N/A         79  79  100 NE5     N/A
#GLENWOOD       N/A         82  48  31  CALM    30.01F
#NELSON 3SW     N/A         76  44  32  CALM    30.19S
#NILE           N/A         79  47  32  NE1     29.29S
#TEANAWAY 4NE   N/A         78  51  39  CALM    N/A
#TROUT LAKE 1NE N/A         81  41  24  CALM    30.00F
#TROUT LAKE 1E  N/A         81  41  24  CALM    30.09F
$$

WAZ521-280310-
SIMCOE HIGHLANDS

CITY            SKY/WX      TMP DP  RH  WIND    PRES   REMARKS
#BICKLETON HS   N/A         74  45  35  CALM    30.11S
#CENTERVILLE 1SWN/A         81  42  25  CALM    29.97F
#GOLDENDALE 1NE N/A         81  27  14  S3      N/A
#GOLDENDALE 4W  N/A         83  21  10  SE3     30.10S
#GOODNOE HILLS  N/A         82  39  22  E8      N/A
#LYLE 6NE       N/A         83  46  27  SW1     29.96F
#PITT 4SE       N/A         78  40  26  CALM    30.02F
$$

WAZ026-280310-
KITTITAS VALLEY

CITY            SKY/WX      TMP DP  RH  WIND    PRES   REMARKS
ELLENSBURG AP   SUNNY       84  41  22  SE5     30.06S
YTC-OPS AREA    SUNNY       73  35  25  S9      30.15S
#ELLENSBURG CWU N/A         82  42  24  SE6     29.93F
#ELLENSBURG 3NE N/A         80  47  31  CALM    28.14S
#KITTITAS 4N    N/A         97  54  24  S1      30.08S HX 95
#KITTITAS 3S    N/A         80  56  44  CALM    29.99S
#MANASTASH RDG  N/A         80  80  100 SE3     N/A
#ROCKY CYN DOT  N/A         80  45  29  E7      N/A
#RYEGRASS DOT   N/A         78  43  29  SE5     N/A
#THORP 6N       N/A         77  45  32  E3      30.03S
$$

WAZ027-280310-
YAKIMA VALLEY

CITY            SKY/WX      TMP DP  RH  WIND    PRES   REMARKS
SUNNYSIDE AP    SUNNY       80  46  30  E5      30.03F
YAKIMA AIRPORT  MOSUNNY     86  43  22  SE7     30.04F
YAKIMA-VAGABOND SUNNY       83  40  22  SW7     30.03S
#DONALD 2NE     N/A         87  24  10  NE2     28.89F
#GRANDVIEW      N/A         82  40  22  E1      30.02S
#MABTON         N/A         84  44  25  E2      30.02F
#MOXEE 2E       N/A         82  N/A N/A S7      30.01R
#NACHES 2SW     N/A         82  52  35  E1      30.09S
#OUTLOOK DOT    N/A         84  36  18  CALM    30.01S
#PARKER DOT     N/A         85  41  21  N5      30.04S
#TERRACE HTS    N/A         83  45  26  S1      29.96F
#TOPPENISH      N/A         84  43  24  E1      29.92S
#I82 S UMTANUM RN/A         82  45  27  W2      N/A
#UNION GAP DOT  N/A         84  42  23  S3      30.06S
#WEST VALLEY    N/A         83  44  25  E1      29.98S
#W YAKIMA       N/A         84  45  26  S2      30.00S
#WHITE SWAN 5E  N/A         82  47  29  CALM    30.00S
#WILEY CITY 3W  N/A         80  38  22  CALM    30.02F
#ZILLAH DOT     N/A         85  36  17  E2      N/A
$$

WAZ028-280310-
LOWER COLUMBIA BASIN...WASHINGTON

CITY            SKY/WX      TMP DP  RH  WIND    PRES   REMARKS
PASCO           SUNNY       86  46  25  CALM    30.02F
PROSSER AWOS    N/A         84  39  20  NE6     30.06F
RICHLAND AWOS   SUNNY       87  40  19  W3      30.02F
#BASIN CITY 5SW N/A         85  49  29  CALM    30.00F
#BENTON CITY    N/A         82  39  22  CALM    29.91F
#CONNELL 5N     N/A         86  48  27  CALM    30.01F
#CONNELL 5NW    N/A         82  55  40  CALM    29.96F
#ELTOPIA 6NW    N/A         84  51  32  CALM    29.02S
#KAHLOTUS       N/A         81  44  27  S8      30.01F
#KENNEWICK 3S   N/A         83  47  28  CALM    30.00F
#PATERSON       N/A         87  41  20  CALM    29.98F
#PROSSER DOT    N/A         85  38  19  N1      30.05S
#SAGEMOOR 2W    N/A         84  53  34  N1      29.87F
#TOUCHET 2S     N/A         81  59  47  CALM    29.98S
#WEST PASCO     N/A         89  46  23  N1      30.01S
$$

WAZ029-280310-
FOOTHILLS OF THE BLUES...WASHINGTON

CITY            SKY/WX      TMP DP  RH  WIND    PRES   REMARKS
WALLA WALLA AP  SUNNY       82  50  33  N9      30.05S
#CLYDE 6NW      N/A         82  42  24  E6      30.01S
#DAYTON SCHOOL  N/A         79  42  27  VRB2    30.09S
#DELANEY DOT    N/A         83  39  21  N6      30.07S
#LOWDEN 2SE     N/A         86  53  32  CALM    29.98S
#PLEASANT VIEW 1N/A         79  44  29  NE1     30.05S
#PRESCOTT       N/A         81  51  35  NE1     29.99S
#WHITMAN COLLEGEN/A         84  50  31  N6      30.05S
#WAITSBURG 6SSE N/A         78  53  42  N2      30.02F
#WAITSBURG 8N   N/A         86  N/A N/A N5      30.11S
#WALLA WALLA 5E N/A         78  52  40  N2      N/A
#WHITMAN MISSIONN/A         87  54  32  CALM    30.01S
$$

WAZ030-280310-
BLUE MOUNTAINS...WASHINGTON

CITY            SKY/WX      TMP DP  RH  WIND    PRES   REMARKS
#DIXIE 5SE      N/A         72  41  33  N6      30.07S
$$

ORZ009-041-WAZ024-280310-
COLUMBIA RIVER GORGE

CITY            SKY/WX      TMP DP  RH  WIND    PRES   REMARKS
HOOD RIVER AP   SUNNY       84  45  26  CALM    30.01F
THE DALLES AP   SUNNY       90  37  15  E3      29.98F HX 86
#ARLINGTON AIRPON/A         82  41  23  E6      30.01F
#CELILO DOT     N/A         92  48  22  CALM    N/A    HX 89
#LYLE           N/A         88  41  19  S1      29.98S
#MARYHILL       N/A         86  35  16  N6      29.88S
#MURDOCK        N/A         90  42  19  NE2     29.93F HX 86
#RUFUS DOT      N/A         86  39  19  NE5     N/A
#SMITHVILLE     N/A         87  42  21  E3      29.91F

$$

ORZ510-280310-
NORTH CENTRAL OREGON

CITY            SKY/WX      TMP DP  RH  WIND    PRES   REMARKS
#ANTELOPE       N/A         78  38  24  CALM    29.87F
#CHENOWITH 1W   N/A         51  35  54  NW14    N/A
#COW CYN RST AREN/A         78  23  13  NE3     N/A
#DUFUR          N/A         82  42  24  N3      29.96S
#DUFUR 9E       N/A         77  40  26  NE12    30.03S
#GRASS VALLEY 1SN/A         79  42  27  E5      30.10S
#KENT DOT       N/A         80  36  21  NE6     N/A
#MAUPIN SCHOOL  N/A         86  47  26  CALM    30.05S
#MORO SCHOOL    N/A         81  47  30  N3      30.15S
#SHANIKO 5WSW   N/A         76  32  20  N8      N/A
#SHANIKO 4NW    N/A         75  32  21  E3      30.15F
#TYGH VALLEY 2NEN/A         87  42  21  CALM    29.97F
#WAPANITIA AIRPON/A         81  39  22  NE2     30.00F
#WASCO DOT      N/A         82  44  26  CALM    N/A
#WASCO 5NE      N/A         82  45  27  E5      30.00F
$$

ORZ511-280310-
CENTRAL OREGON

CITY            SKY/WX      TMP DP  RH  WIND    PRES   REMARKS
BEND AIRPORT    SUNNY       79  32  18  N9      30.05S
MADRAS AIRPORT  SUNNY       79  28  15  MISG    30.09F
PRINEVILLE AP   SUNNY       79  34  20  N10     30.11S
REDMOND AIRPORT SUNNY       80  25  13  N10     30.09S
#ASHWOOD SCHOOL N/A         80  31  17  CALM    30.04S
#BEND 1SW       N/A         74  35  24  NE3     N/A
#BEND-AWBREY    N/A         82  40  22  N1      29.98S
#BEND-KIM LN    N/A         79  37  22  NE6     29.93F
#CULVER         N/A         78  38  24  N1      29.92S
#CULVER 8W      N/A         79  20  11  CALM    30.08F
#MADRAS 4S      N/A         80  18  10  N8      30.16S
#POWELL BUTTE   N/A         78  26  15  N2      30.06S
#PRINEVILLE     N/A         80  37  21  NW3     30.05F
#PRINEVILLE 3N  N/A         76  45  33  NW6     29.99S
#WARM SPRINGS   N/A         84  37  19  CALM    29.84F

$$


ORZ509-280310-
EAST SLOPES OF OREGON CASCADES

CITY            SKY/WX      TMP DP  RH  WIND    PRES   REMARKS
SISTERS AWOS    N/A         79  36  21  NE9     30.07S
#CAMP SHERMAN   N/A         76  33  21  CALM    30.09S
#LA PINE 4SW    N/A         77  -18  2  N6      30.09S
#LA PINE 4NW    N/A         76  41  28  CALM    30.03S
#LAVA BUTTE DOT N/A         75  35  23  NW2     N/A
#SISTERS 3N     N/A         76  34  22  NE3     30.09S
#SUNRIVER       N/A         76  36  23  N1      30.01S
#TUMALO 3W      N/A         77  35  22  N5      29.85S
#WANOGA BUTTE D N/A         65  30  27  NE7     N/A

$$

ORZ044-280310-
LOWER COLUMBIA BASIN...OREGON

CITY            SKY/WX      TMP DP  RH  WIND    PRES   REMARKS
HERMISTON       SUNNY       87  37  17  NE3     30.02S
#BOARDMAN SCHOOLN/A         85  42  22  NW1     30.00S
#BOARDMAN 8SW   N/A         85  46  26  N1      30.00F
#ECHO 8SW       N/A         86  48  27  N2      30.03F
#I-84 EX 198 DOTN/A         84  47  28  E3      N/A
#IONE SCHOOL    N/A         83  36  19  NW1     30.01S
#UMATILLA       N/A         87  40  19  CALM    29.92F
$$

ORZ507-280310-
NORTHERN FOOTHILLS OF THE BLUES

CITY            SKY/WX      TMP DP  RH  WIND    PRES   REMARKS
PENDLETON AIRPT SUNNY       80  53  39  N5      30.05F
#ADAMS 3WNW     N/A         79  50  36  NE6     30.01F
#ATHENA         N/A         80  48  33  VRB2    30.04F
#CAYUSE         N/A         80  53  39  VRB1    29.99F
#HELIX SCHOOL   N/A         79  45  30  N6      30.03S
#HELIX 3N       N/A         77  41  28  NE9     30.05S
#HOLDMAN 5SE    N/A         84  42  23  CALM    30.04S
#HOLDMAN 6E     N/A         80  47  31  NE3     29.82F
#M-F FERNDALE   N/A         84  47  28  CALM    30.00S
#M-FREEWATER 5SEN/A         83  52  34  CALM    30.05S
#PENDLETON DNTN N/A         82  42  24  E2      30.01F
#PDT AQUATIC CTRN/A         86  40  20  N2      30.08S
#PDT SUNRIDGE   N/A         84  44  25  CALM    30.05F
#PENDLETON 7NW  N/A         82  47  29  CALM    32.36R
#PILOT ROCK 1S  N/A         80  44  28  CALM    30.07F
#PILOT ROCK     N/A         83  41  23  CALM    30.09S
#TUTUILLA       N/A         81  51  35  NE1     30.03S
#UMAPINE 2E     N/A         85  53  33  CALM    30.00S
#WESTON SCHOOL  N/A         78  40  26  NE6     29.97F

$$

ORZ508-280310-
SOUTHERN FOOTHILLS OF THE BLUES

CITY            SKY/WX      TMP DP  RH  WIND    PRES   REMARKS
LEXINGTON       SUNNY       82  36  19  N9      30.09F
#AJAX           N/A         78  36  22  S7      30.22F
#CONDON 5W      N/A         73  35  25  NE5     30.12S
#FOSSIL SCHOOL  N/A         78  40  26  N6      30.03F
#HEPPNER EOC    N/A         80  40  24  N6      29.95S
#LEXINGTON 2SE  N/A         83  41  23  CALM    30.02F
#MIKKALO        N/A         81  37  21  NE2     30.18S
#OLEX 4N        N/A         81  40  23  N7      30.02F
#RUGGS 5NE      N/A         78  37  23  N8      30.33R
#RUGGS 2SW      N/A         76  41  28  NE5     30.03S

$$

ORZ502-503-280310-
BLUE MOUNTAINS

CITY            SKY/WX      TMP DP  RH  WIND    PRES   REMARKS
MEACHAM         SUNNY       70  34  26  VRB6    30.17S
#BATTLE MTN DOT N/A         68  32  26  N2      N/A
#GRANITE        N/A         71  21  15  CALM    29.83S
#GREENHORN 9SW  N/A         72  39  30  W2      30.12F
#HARDMAN 10S    N/A         73  41  31  CALM    30.16S
#LADD CYN SMT   N/A         73  36  26  NW6     N/A
#LADD CREEK ODOTN/A         73  41  31  CALM    N/A
#LONG CREEK HS  N/A         72  37  28  CALM    N/A
#N POWDER DOT   N/A         80  40  24  CALM    N/A
#PIKES PEAK     N/A         69  42  37  N5      27.99S
#SUMMERVILLE 5NWN/A         72  47  41  W2      30.15S
#TOLLGATE       N/A         62  43  50  CALM    30.06S
#TROY SCHOOL    N/A         84  51  32  CALM    29.87F
#UKIAH          N/A         76  40  27  N1      29.99S
#WESTON 4E      N/A         72  46  39  N1      30.00S
$$

ORZ505-280310-
JOHN DAY BASIN

CITY            SKY/WX      TMP DP  RH  WIND    PRES   REMARKS
JOHN DAY        SUNNY       76  31  19  CALM    30.14S
#ANTELOPE 9ESE  N/A         85  35  17  CALM    N/A
#DAYVILLE SCHOOLN/A         83  29  14  N3      30.04R
#MITCHELL       N/A         78  43  29  CALM    30.24S
#MITCHELL 8NW   N/A         77  30  18  W1      30.01S
#MONUMENT HS    N/A         83  27  13  CALM    30.01F
#MT. VERNON 5SE N/A         75  34  22  CALM    30.10S
#SPRAY SCHOOL   N/A         85  N/A N/A CALM    N/A
$$

ORZ506-280310-
OCHOCO AND JOHN DAY HIGHLANDS

CITY            SKY/WX      TMP DP  RH  WIND    PRES   REMARKS
#HORSE RIDGE DO N/A         76  25  15  NW13    N/A
#PAULINA ODOT   N/A         77  22  13  W2      N/A
#PINE MTN OBS   N/A         67  32  27  NE1     N/A
#PRAIRIE CITY   N/A         80  37  21  CALM    30.27S
#SENECA         N/A         76  N/A N/A N1      N/A
#SENECA 9NW     N/A         70  36  29  CALM    30.06F
$$

ORZ049-280310-
GRANDE RONDE VALLEY

CITY            SKY/WX      TMP DP  RH  WIND    PRES   REMARKS
LA GRANDE       SUNNY       75  36  24  CALM    30.11F
#COVE           N/A         77  48  36  CALM    30.14F
#COVE SCHOOL    N/A         74  41  30  CALM    30.13S
#COVE 6NW       N/A         79  41  26  CALM    30.06S
#ELGIN 3N       N/A         76  36  23  CALM    30.08F
#ELGIN 1E       N/A         77  40  26  CALM    N/A
#IMBLER SCHOOL  N/A         78  37  23  CALM    30.07S
#ISLAND CITY 4N N/A         87  54  32  CALM    29.98F
#LA GRANDE-LEFFEN/A         80  45  29  E1      30.11S
#UNION 1S       N/A         77  47  35  CALM    30.05S
$$

ORZ050-280310-
WALLOWA COUNTY

CITY            SKY/WX      TMP DP  RH  WIND    PRES   REMARKS
#ENTERPRISE HS  N/A         73  44  35  W2      29.96S
#IMNAHA SCHOOL  N/A         75  41  29  CALM    30.06F
#IMNAHA 10S     N/A         71  41  34  CALM    30.09F
#JOSEPH         N/A         70  38  31  NW3     30.16R
#JOSEPH 3N      N/A         71  41  34  NW3     30.19S
#JOSEPH 3W      N/A         57  48  72  SW2     30.04S
#LOSTINE        N/A         72  43  35  CALM    29.87F
#LOSTINE 3SE    N/A         72  40  31  CALM    30.18S
#MT HOWARD 8000 N/A         53  36  52  CALM    30.38R
#PROMISE 1S     N/A         71  42  35  CALM    30.14F
#WALLOWA LAKE   N/A         59  46  62  CALM    30.22S
#WALLOWA SCHOOL N/A         79  37  22  CALM    30.08F



$$



USA.gov is the U.S. government's official web portal to all federal, state and local government web resources and services.